Location: Solstice Park, West Seattle
(47.5363°N, 122.3905°W)
Time: 14:10:29
(UTC-07:00)

ISS - Pass Details

Date: 22 May 2021
Orbit: 417 x 422 km, 51.6° (Epoch: 22 June)

Event Time Altitude Azimuth Distance (km) Brightness Sun altitude
Rises 21:39:44 0° 275° (W) 2,362 1.0 -7.6°
Reaches altitude 10° 21:41:54 10° 283° (WNW) 1,500 0.1 -7.9°
Maximum altitude 21:45:06 40° 354° (N) 631 -2.4 -8.3°
Drops below altitude 10° 21:48:20 10° 67° (ENE) 1,504 -1.2 -8.7°
Sets 21:50:31 0° 75° (ENE) 2,370 -0.2 -8.9°
